This is the latest recevied weather packets stored in our database for station/object NK7E-2. If no packets are shown the sender has not sent any weather packets the latest 1 day(s).
| Time | Temp. | Humidity | Pressure | Rain* | Wind** | Luminosity | Snow |
|---|---|---|---|---|---|---|---|
| 1778028316 | 21.67° C | 29% | 1016.4 hPa | 0 mm | 4.47 m/s, 248° | - | - |
| 1778027716 | 21.67° C | 30% | 1016.4 hPa | 0 mm | 4.02 m/s, 270° | - | - |
| 1778027116 | 21.11° C | 29% | 1016.3 hPa | 0 mm | 4.92 m/s, 248° | - | - |
| 1778026516 | 21.11° C | 29% | 1016.3 hPa | 0 mm | 4.47 m/s, 270° | - | - |
| 1778025916 | 21.67° C | 28% | 1016.6 hPa | 0 mm | 4.02 m/s, 248° | - | - |
| 1778025316 | 22.22° C | 28% | 1016.6 hPa | 0 mm | 4.47 m/s, 248° | - | - |
| 1778024716 | 21.67° C | 27% | 1016.6 hPa | 0 mm | 4.47 m/s, 248° | - | - |
| 1778024117 | 22.22° C | 26% | 1016.8 hPa | 0 mm | 4.02 m/s, 248° | - | - |
| 1778023516 | 22.22° C | 25% | 1016.5 hPa | 0 mm | 5.36 m/s, 248° | - | - |
| 1778022916 | 22.22° C | 25% | 1016.9 hPa | 0 mm | 5.81 m/s, 248° | - | - |
| 1778022316 | 22.22° C | 24% | 1016.6 hPa | 0 mm | 5.81 m/s, 270° | - | - |
| 1778021716 | 22.22° C | 25% | 1016.4 hPa | 0 mm | 5.36 m/s, 270° | - | - |
| 1778021116 | 22.22° C | 31% | 1016.4 hPa | 0 mm | 5.81 m/s, 248° | - | - |
| 1778020516 | 22.22° C | 32% | 1016.4 hPa | 0 mm | 4.92 m/s, 270° | - | - |
| 1778019916 | 22.22° C | 31% | 1016.8 hPa | 0 mm | 6.26 m/s, 248° | - | - |
| 1778019316 | 22.78° C | 33% | 1017 hPa | 0 mm | 6.26 m/s, 248° | - | - |
| 1778018716 | 22.22° C | 34% | 1016.8 hPa | 0 mm | 4.92 m/s, 248° | - | - |
| 1778018126 | 22.78° C | 34% | 1017 hPa | 0 mm | 4.92 m/s, 248° | - | - |
| 1778017516 | 22.22° C | 35% | 1017.1 hPa | 0 mm | 5.81 m/s, 248° | - | - |
| 1778016916 | 22.22° C | 38% | 1017.2 hPa | 0 mm | 4.02 m/s, 225° | - | - |
| 1778016316 | 22.22° C | 36% | 1017.4 hPa | 0 mm | 5.81 m/s, 248° | - | - |
| 1778015716 | 22.22° C | 35% | 1017.3 hPa | 0 mm | 4.47 m/s, 248° | - | - |
| 1778015116 | 22.22° C | 37% | 1017.2 hPa | 0 mm | 3.13 m/s, 248° | - | - |
| 1778014516 | 22.78° C | 34% | 1017.3 hPa | 0 mm | 3.58 m/s, 225° | - | - |
| 1778013916 | 21.67° C | 37% | 1017.6 hPa | 0 mm | 3.58 m/s, 248° | - | - |
* Rain latest hour (hover to see other rain measurements)
** Current wind speed in m/s (hover to see current wind gust speed)